Plano's Hourly Summary for Friday, March 17, 2017
Hour Temp
(f)
RH
(%)
Solar Rad.
(MJ/m2)
Rainfall
(in)
Wind
(mph)
3/17/2017 12:00 AM 65 75 0 0 5.1
3/17/2017 1:00 AM 65 78 0 0 4.86
3/17/2017 2:00 AM 65 78 0 0 5.26
3/17/2017 3:00 AM 65 78 0 0 6.73
3/17/2017 4:00 AM 65 77 0 0 6.17
3/17/2017 5:00 AM 66 74 0 0 5.82
3/17/2017 6:00 AM 67 73 0 0 7.01
3/17/2017 7:00 AM 67 71 0 0 6.38
3/17/2017 8:00 AM 67 69 0.01 0 6.57
3/17/2017 9:00 AM 67 68 0.22 0 6.24
3/17/2017 10:00 AM 68 71 0.41 0 7.19
3/17/2017 11:00 AM 69 69 0.59 0 7.24
3/17/2017 12:00 PM 70 68 0.76 0 7.21
3/17/2017 1:00 PM 71 67 0.91 0 6.53
3/17/2017 2:00 PM 72 65 0.98 0 6.48
3/17/2017 3:00 PM 73 62 1.43 0 6.88
3/17/2017 4:00 PM 73 61 1.31 0 7.18
3/17/2017 5:00 PM 74 59 0.88 0 6.21
3/17/2017 6:00 PM 74 57 0.52 0 6.58
3/17/2017 7:00 PM 74 58 0.22 0 5.04
3/17/2017 8:00 PM 74 58 0.02 0 3.72
3/17/2017 9:00 PM 74 58 0 0 1.79
3/17/2017 10:00 PM 73 60 0 0 1.83
3/17/2017 11:00 PM 72 61 0 0 1.92
Data Summary 69 67 8.26 0.00 5.66